METEOR 1-17 DEB

Satellite information

Favourite Embed

Satellite Type and Status

DEBRISIN ORBIT

Key statistics

Satellite METEOR 1-17 DEB at a glance.

Uptime

18756

Days in orbit

Revolutions

≈ 14.2

Per day

Orbit

LEO

Low Earth Orbit

Inclination

81.2

Latest

Satellite identification and parameters

Extended collection of information and parameters for METEOR 1-17 DEB.

Object identification

Identified? True

Debris? True

Object name: METEOR 1-17 DEB

International designator: 1974-025L

Object number (NORAD): 57545

Object ID (CCSDS): 57545

Country: COMMONWEALTH OF INDEPENDENT STATES (CIS)

Current information (Y/N): Y

RCS size: SMALL

Orbital parameters

Period: 101.368 minutes

Inclination: 81.2123 deg

SMA: 7201.572 km

Apoapsis: 835.116 km

Periapsis: 811.759 km

RAAN: 214.522 deg

Eccentricy: 0.00162167

Argument of periapsis: 10.9 deg

Mean anomaly: 349.2525 deg

Mean motion: 14.20567146 rev/day

Mean motion (dot): 0.00006417 rev/day2

B* drag term: 0.0029754442 1/REarth

Two-line elements (TLE)

Creation date: Aug. 30, 2025, 3:38 a.m.

Reference frame: TEME

Reference center: EARTH

Epoch: Aug. 29, 2025, 3:34 p.m. UTC

TLE line 0: 0 METEOR 1-17 DEB

TLE line 1: 1 57545U 74025L 25241.64881398 .00006417 00000-0 29754-2 0 9992

TLE line 2: 2 57545 81.2123 214.5220 0016217 10.9000 349.2525 14.20567146 66837

Live tracking on map

Real-time ground track for satellite METEOR 1-17 DEB.

In-orbit conjunctions

A list of the most updated potential collisions computed for object METEOR 1-17 DEB.

Target Orbit TCA Probability of collision Miss distance Type
FENGYUN 1C DEB SSO 2025-08-29 06:35:38 0.000645166 59.0 (m) DEBRIS
FENGYUN 1C DEB SSO 2024-11-14 02:45:20 0.0002887499 477.0 (m) DEBRIS
CZ-6A DEB SSO 2024-11-10 21:34:28 0.0001872528 416.0 (m) DEBRIS
COSMOS 249 DEB LEO 2024-11-10 04:00:02 0.0001704334 649.0 (m) DEBRIS
FENGYUN 1C DEB SSO 2024-09-28 12:03:08 0.0009860518 73.0 (m) DEBRIS

Associated space launch

The Meteor-1 series was the first series of Soviet meteorological satellites.

METEOR 1-17 DEB was lifted into orbit during the mission ‘Vostok 8A92M | Meteor-1 17 (22L)’, on board a Vostok 8A92M space rocket.

The launch took place on April 24, 1974, 11:50 a.m. from 43/4 (43R).

For more information about the launch, click the button.

Launch to space Vostok 8A92M | Meteor-1 17 (22L)
Vostok 8A92M | Meteor-1 17 (22L)

Agency: N/A

Status: Launch Successful

Launch date: April 24, 1974, 11:50 a.m. UTC

Rocket: Vostok 8A92M

Launch pad: 43/4 (43R)

Location: Plesetsk Cosmodrome, Russian Federation

...

Latest news about this satellite

There are no fresh news available about this satellite. Check back as we update our databases every day.


Newsletter sign-up

Weekly statistics, charts and insights to help you stay on top of the space industry.